Location: Pellegrina
(45.2167°N, 11.0167°E)
Time: 20:22:25
(UTC+00:00)

Daily predictions for brighter satellites

Satellite Brightness Start Highest point End
(mag) Time Altitude Azimuth Time Altitude Azimuth Time Altitude Azimuth
ATLAS CENTAUR R/B 4.2 16:31:42 10° W 16:37:01 51° NNW 16:51:23 10° ENE
Cosmos 2251 Rocket 4.2 16:37:55 10° N 16:42:42 33° ENE 16:47:29 10° ESE
Cosmos 1455 2.9 16:40:58 10° N 16:44:23 30° ENE 16:47:45 10° SE
CORIOLIS 4.2 16:41:56 10° SSE 16:47:17 83° ENE 16:52:40 10° NNW
Cosmos 2341 Rocket 4.1 16:42:43 10° S 16:48:59 64° E 16:55:16 10° NNE
Cosmos 1939 Rocket 4.3 16:49:45 10° ESE 16:52:20 17° ENE 16:54:58 10° NNE
USA 32 4.0 16:47:42 10° S 16:52:52 67° E 16:58:04 10° N
Envisat 3.0 16:52:40 10° SSE 16:57:44 77° ENE 17:02:50 10° N
SL-16 R/B 2.3 16:56:04 10° NNW 17:01:41 59° ENE 17:07:16 10° SE
Iridium 96 3.6 17:03:49 10° N 17:06:13 55° E 17:08:44 10° SSE
Cosmos 1339 Rocket 4.5 17:00:26 10° N 17:06:27 58° ENE 17:12:30 10° SSE
Meteor 2-10 Rocket 3.5 17:01:25 10° N 17:06:38 61° ENE 17:11:39 10° SSE
USA 267 3.5 17:01:43 10° NE 17:08:12 67° NNW 17:14:40 10° WSW
Cosmos 2082 3.7 17:03:44 10° S 17:09:16 64° ESE 17:14:51 10° NNE
Cosmos 2219 3.9 17:04:16 10° SW 17:09:44 53° WNW 17:15:18 10° NNE
Cosmos 1953 Rocket 3.6 17:06:50 10° S 17:11:15 63° E 17:15:41 10° NNE
Cosmos 2218 Rocket 4.1 17:06:33 10° S 17:12:46 60° E 17:19:03 10° NNE
Atlas Centaur 2 4.1 17:11:15 10° S 17:12:50 12° SSE 17:14:30 10° SSE
COSMO-SKYMED 1 2.6 17:10:10 10° NNE 17:14:27 56° E 17:18:43 10° S
DELTA 2 R/B (1) 4.4 17:09:49 10° WSW 17:15:07 46° S 17:20:27 10° ESE
Cosmos 2297 Rocket 2.6 17:09:36 10° SW 17:15:13 67° WNW 17:20:54 10° NNE
Cosmos 1758 Rocket 3.8 17:11:11 10° SSW 17:15:27 70° W 17:19:48 10° N
Cosmos 1842 Rocket 4.4 17:11:57 10° NNE 17:15:51 28° ENE 17:19:43 10° SE
SL-8 R/B 3.7 17:12:39 10° WSW 17:17:30 82° NNW 17:21:14 17° ENE
Cosmos 2263 Rocket 3.5 17:20:09 10° SE 17:23:38 17° E 17:24:32 17° E
Cosmos 1959 Rocket 4.4 17:18:07 10° S 17:24:13 71° E 17:30:18 10° NNE
Starlink AR 4.4 17:23:32 10° NW 17:25:22 17° N 17:25:52 16° NNE
Cosmos 2227 Rocket 2.8 17:22:55 10° SW 17:28:29 59° WNW 17:34:05 10° NNE
ISS -2.9 17:26:49 10° W 17:30:04 43° NNW 17:31:56 21° NE
NOAA 11 4.2 17:24:57 10° SSE 17:30:18 56° ENE 17:35:40 10° N
CZ-4 R/B 1.3 17:27:38 10° SSE 17:31:42 76° ENE 17:35:53 10° N
YAOGAN 6 3.3 17:29:26 10° S 17:33:03 58° W 17:36:40 10° NNW
ATLAS CENTAUR R/B 1.1 17:32:38 10° NNW 17:36:40 72° NE 17:40:16 11° SE
Cosmos 1328 3.8 17:32:59 10° S 17:37:01 83° W 17:41:03 10° N
Shenzhou-11 Module 2.2 17:35:10 10° WSW 17:37:48 49° S 17:38:37 34° SE
Starlink P 4.5 17:35:56 10° NW 17:38:30 22° N 17:39:01 21° NNE
Starlink U 4.5 17:37:55 10° NW 17:40:29 22° N 17:40:56 21° NNE
Cosmos 2366 rocket 4.0 17:34:51 10° S 17:41:05 90° ENE 17:47:25 10° N
Ariane Rocket 3.6 17:36:49 10° SE 17:41:17 33° ENE 17:45:48 10° N
USA 116 3.2 17:40:56 26° NE 17:42:26 53° ESE 17:45:28 10° S
Starlink B 4.5 17:39:56 10° NW 17:42:31 22° N 17:42:52 22° NNE
USA 234 3.7 17:36:19 10° SE 17:42:48 64° SW 17:49:18 10° NW
Cosmos 1943 3.9 17:40:05 10° N 17:45:07 32° NE 17:47:06 26° E
Cosmos 2221 2.6 17:47:43 10° N 17:51:53 47° ENE 17:56:02 10° SSE
Okean-O 4.4 17:50:16 10° SSW 17:54:18 34° W 17:58:22 10° NNW
Starlink D 4.5 17:53:38 10° NW 17:56:06 24° N 17:56:06 24° N
CSL-04 Debris 4.2 17:51:24 10° SSE 17:56:48 86° WSW 18:02:15 10° NNW
Cosmos 44 4.4 17:54:42 10° WSW 17:58:54 36° NW 18:02:12 14° NNE
Cosmos 1356 Rocket 3.5 17:55:47 10° NNW 17:59:50 74° W 18:03:56 10° S
ADEOS Rocket 3.5 17:53:35 10° NNE 18:00:15 54° E 18:07:31 10° S
BREEZE-M DEB (TANK) 3.6 17:57:53 10° SW 18:01:02 35° SSE 18:01:02 35° SSE
Cosmos 614 Rocket 4.3 17:56:36 10° N 18:01:35 44° ENE 18:03:06 35° ESE
USA 238 DEB 4.2 17:56:30 10° S 18:02:25 35° ESE 18:03:59 31° E
USA 238 4.2 17:56:39 10° S 18:02:33 35° ESE 18:04:02 31° E
ATLAS 5 CENTAUR R/B 3.9 18:00:15 10° NNW 18:04:57 48° NE 18:15:54 18° ESE
IRS-1A Rocket 4.4 18:00:24 10° SE 18:05:56 52° ENE 18:11:23 10° N
Cosmos 1727 Rocket 4.2 18:04:37 10° NNW 18:10:47 71° W 18:16:54 10° S
YAOGAN 1 3.7 18:13:07 10° S 18:17:16 45° W 18:21:26 10° NNW
CSL-04 Rocket 4.2 18:11:54 10° S 18:17:20 60° WSW 18:22:50 10° NNW
ATLAS 5 CENTAUR R/B 4.3 18:20:03 10° N 18:20:52 10° N 18:21:38 10° NNE
H-2A R/B 2.9 18:27:12 32° NNE 18:27:12 32° NNE 18:30:15 10° N
Cosmos 1140 Rocket 4.0 18:20:56 10° N 18:24:58 40° NNE 18:24:58 40° NNE
Cosmos 1939 Rocket 4.0 18:23:10 10° S 18:26:55 43° W 18:30:46 10° NNW
Cosmos 44 Rocket 3.3 18:36:10 10° SW 18:40:58 72° NW 18:41:16 69° NNW
Cosmos 1821 Rocket 4.2 18:42:07 10° SSW 18:48:27 71° W 18:54:46 10° N
Cosmos 2227 4.2 18:43:51 10° SSW 18:49:35 78° WNW 18:50:52 55° N
USA 267 4.3 18:48:27 28° NNE 18:50:35 35° NNW 18:56:22 10° WNW
Cosmos 1371 Rocket 4.3 18:51:57 10° SSW 18:56:02 57° SSW 18:56:02 57° SSW
Cosmos 1603 4.1 18:53:14 10° NNW 18:58:48 60° WSW 19:00:32 41° SSW
Cosmos 1190 Rocket 4.3 18:55:00 10° NNW 18:59:35 65° NW 18:59:35 65° NW
Cosmos 407 Rocket 3.7 18:55:13 10° NNW 19:00:24 67° WSW 19:00:24 67° WSW
Atlas Centaur 2 4.1 18:58:02 10° SW 19:00:09 14° S 19:00:09 14° S
ARGOS 4.2 19:05:26 35° N 19:05:26 35° N 19:08:28 10° NNW
BREEZE-M DEB (TANK) 4.2 18:37:57 10° WNW 19:06:46 86° NNE 19:08:17 64° ESE
Cosmos 2263 Rocket 2.4 19:01:20 10° SSW 19:06:18 67° WSW 19:06:18 67° WSW
ISS -0.5 19:04:30 10° WNW 19:04:54 12° NW 19:04:54 12° NW
CENTAUR R/B 4.4 19:03:55 10° S 19:04:36 14° S 19:04:36 14° S
NOSS 3-2 (A) 3.8 19:07:07 10° SSW 19:11:19 52° SSW 19:11:19 52° SSW
ATLAS CENTAUR R/B 4.4 19:13:55 10° W 19:14:53 11° WSW 19:15:49 10° WSW
Cosmos 2123 Rocket 4.2 19:08:57 10° NNW 19:15:14 69° W 19:16:36 53° SSW
Ariane Rocket 4.5 19:15:36 10° SSW 19:20:11 34° W 19:24:49 10° NNW
Cosmos 1934 Rocket 4.3 19:15:49 10° SSW 19:21:47 62° W 19:22:15 60° WNW
Cosmos 1943 4.1 19:23:58 10° NW 19:29:00 44° W 19:29:00 44° W
USA 238 DEB 4.5 19:46:31 10° WSW 19:51:29 46° W 19:51:29 46° W
USA 238 4.5 19:46:38 10° WSW 19:51:32 45° W 19:51:32 45° W
